When you browse on this site, cookies collect data to enhance your experience and personalize the content and advertising you see.
Visit our Privacy Policy to learn more. By continuing to use the site, you agree to this use of cookies and data.
  • In Schweiz
  • Länderverzeichnis
  • Für 7 Tage
  • Wassertemperatur
  • Wetterkarte
  • Widgets
  • user-avatar
    Anmelden

    Stündliche Wetter Mozoli

    Heute, 15 September, Sonntag

    Zeit Temperatur Niederschläge Wind Luftdruck Luftfeuchtigkeit
    00:00 +9°C° 0 mm 3 m/S 756 mmHg 87%
    01:00 +9°C° 0 mm 3 m/S 756 mmHg 88%
    02:00 +8°C° 0 mm 2 m/S 756 mmHg 90%
    03:00 +8°C° 0 mm 3 m/S 756 mmHg 90%
    04:00 +8°C° 0 mm 3 m/S 755 mmHg 90%
    05:00 +8°C° 0 mm 3 m/S 755 mmHg 91%
    06:00 +9°C° 0 mm 3 m/S 755 mmHg 86%
    07:00 +10°C° 0 mm 3 m/S 754 mmHg 81%
    08:00 +11°C° 0 mm 4 m/S 754 mmHg 77%
    09:00 +12°C° 0 mm 5 m/S 753 mmHg 70%
    10:00 +14°C° 0 mm 5 m/S 753 mmHg 64%
    11:00 +15°C° 0 mm 6 m/S 752 mmHg 57%
    12:00 +16°C° 0 mm 6 m/S 752 mmHg 54%
    13:00 +16°C° 0 mm 7 m/S 751 mmHg 50%
    14:00 +17°C° 0 mm 7 m/S 750 mmHg 46%
    15:00 +17°C° 0 mm 7 m/S 749 mmHg 49%
    16:00 +17°C° 0 mm 6 m/S 748 mmHg 52%
    17:00 +17°C° 0 mm 6 m/S 747 mmHg 55%
    18:00 +16°C° 0 mm 6 m/S 747 mmHg 56%
    19:00 +15°C° 0 mm 6 m/S 747 mmHg 58%
    20:00 +14°C° 0 mm 5 m/S 746 mmHg 59%
    21:00 +15°C° 0 mm 6 m/S 746 mmHg 61%
    22:00 +15°C° 0 mm 6 m/S 745 mmHg 62%
    23:00 +15°C° 0 mm 6 m/S 745 mmHg 63%

    Morgen, 16 September, Montag

    Zeit Temperatur Niederschläge Wind Luftdruck Luftfeuchtigkeit
    00:00 +15°C° 0 mm 6 m/S 745 mmHg 61%
    01:00 +15°C° 0 mm 6 m/S 745 mmHg 59%
    02:00 +15°C° 0 mm 5 m/S 744 mmHg 57%
    03:00 +15°C° 0 mm 6 m/S 744 mmHg 59%
    04:00 +14°C° 0 mm 6 m/S 744 mmHg 60%
    05:00 +14°C° 0 mm 7 m/S 744 mmHg 61%
    06:00 +14°C° 0 mm 7 m/S 744 mmHg 64%
    07:00 +12°C° 0 mm 7 m/S 744 mmHg 68%
    08:00 +12°C° 0 mm 7 m/S 744 mmHg 71%
    09:00 +12°C° 0 mm 7 m/S 744 mmHg 68%
    10:00 +14°C° 0 mm 7 m/S 744 mmHg 64%
    11:00 +14°C° 0 mm 7 m/S 745 mmHg 61%
    12:00 +14°C° 0 mm 7 m/S 744 mmHg 60%
    13:00 +14°C° 0 mm 7 m/S 744 mmHg 59%
    14:00 +14°C° 0 mm 7 m/S 744 mmHg 58%
    15:00 +14°C° 0 mm 6 m/S 744 mmHg 59%
    16:00 +14°C° 0 mm 6 m/S 744 mmHg 60%
    17:00 +13°C° 0 mm 6 m/S 744 mmHg 61%
    18:00 +13°C° 0 mm 5 m/S 744 mmHg 62%
    19:00 +12°C° 0 mm 5 m/S 743 mmHg 63%
    20:00 +11°C° 0 mm 4 m/S 743 mmHg 64%
    21:00 +11°C° 0 mm 4 m/S 743 mmHg 67%
    22:00 +10°C° 0 mm 4 m/S 743 mmHg 71%
    23:00 +8°C° 0 mm 4 m/S 743 mmHg 74%

    übermorgen, 17 September, Dienstag

    Zeit Temperatur Niederschläge Wind Luftdruck Luftfeuchtigkeit
    00:00 +7°C° 0 mm 4 m/S 743 mmHg 76%
    01:00 +7°C° 0 mm 4 m/S 742 mmHg 78%
    02:00 +7°C° 0 mm 4 m/S 742 mmHg 80%
    03:00 +7°C° 0 mm 4 m/S 742 mmHg 80%
    04:00 +7°C° 0 mm 5 m/S 742 mmHg 79%
    05:00 +7°C° 0 mm 5 m/S 742 mmHg 79%
    06:00 +7°C° 0 mm 6 m/S 742 mmHg 77%
    07:00 +8°C° 0 mm 6 m/S 741 mmHg 75%
    08:00 +9°C° 0 mm 7 m/S 741 mmHg 74%
    09:00 +10°C° 0 mm 7 m/S 741 mmHg 70%
    10:00 +11°C° 0 mm 7 m/S 741 mmHg 67%
    11:00 +12°C° 0 mm 7 m/S 741 mmHg 63%
    12:00 +12°C° 0.3 mm 8 m/S 740 mmHg 62%
    13:00 +12°C° 0.3 mm 8 m/S 740 mmHg 62%
    14:00 +13°C° 0.3 mm 8 m/S 739 mmHg 61%
    15:00 +12°C° 0.4 mm 8 m/S 739 mmHg 64%
    16:00 +11°C° 0.4 mm 7 m/S 739 mmHg 67%
    17:00 +11°C° 0.4 mm 7 m/S 738 mmHg 71%
    18:00 +9°C° 0.7 mm 6 m/S 738 mmHg 76%
    19:00 +8°C° 0.7 mm 5 m/S 738 mmHg 81%
    20:00 +7°C° 0.7 mm 5 m/S 738 mmHg 86%
    21:00 +6°C° 0.1 mm 5 m/S 738 mmHg 86%
    22:00 +5°C° 0.1 mm 6 m/S 738 mmHg 86%
    23:00 +5°C° 0.1 mm 6 m/S 738 mmHg 86%

    18 September, Mittwoch

    Zeit Temperatur Niederschläge Wind Luftdruck Luftfeuchtigkeit
    00:00 +4°C° 0 mm 6 m/S 738 mmHg 86%
    01:00 +4°C° 0 mm 6 m/S 738 mmHg 87%
    02:00 +4°C° 0 mm 6 m/S 738 mmHg 87%
    03:00 +4°C° 0.2 mm 6 m/S 738 mmHg 88%
    04:00 +4°C° 0.2 mm 6 m/S 738 mmHg 89%
    05:00 +4°C° 0.2 mm 7 m/S 739 mmHg 90%
    06:00 +5°C° 0.3 mm 6 m/S 739 mmHg 88%
    07:00 +5°C° 0.3 mm 6 m/S 740 mmHg 87%
    08:00 +7°C° 0.3 mm 6 m/S 740 mmHg 86%
    09:00 +7°C° 0.4 mm 6 m/S 741 mmHg 86%
    10:00 +7°C° 0.4 mm 6 m/S 741 mmHg 86%
    11:00 +8°C° 0.4 mm 6 m/S 742 mmHg 87%
    12:00 +9°C° 0.4 mm 6 m/S 742 mmHg 82%
    13:00 +10°C° 0.4 mm 7 m/S 742 mmHg 77%
    14:00 +11°C° 0.4 mm 8 m/S 743 mmHg 72%
    15:00 +11°C° 0.4 mm 7 m/S 743 mmHg 73%
    16:00 +10°C° 0.4 mm 7 m/S 743 mmHg 75%
    17:00 +10°C° 0.4 mm 7 m/S 743 mmHg 76%
    18:00 +9°C° 0 mm 7 m/S 744 mmHg 81%
    19:00 +8°C° 0 mm 6 m/S 744 mmHg 85%
    20:00 +7°C° 0 mm 5 m/S 745 mmHg 90%
    21:00 +7°C° 0.1 mm 5 m/S 745 mmHg 90%
    22:00 +7°C° 0.1 mm 5 m/S 746 mmHg 90%
    23:00 +7°C° 0.1 mm 5 m/S 746 mmHg 90%

    19 September, Donnerstag

    Zeit Temperatur Niederschläge Wind Luftdruck Luftfeuchtigkeit
    00:00 +6°C° 0 mm 5 m/S 746 mmHg 92%
    01:00 +6°C° 0 mm 4 m/S 746 mmHg 94%
    02:00 +5°C° 0 mm 4 m/S 747 mmHg 96%
    03:00 +5°C° 0 mm 3 m/S 747 mmHg 96%
    04:00 +4°C° 0 mm 3 m/S 747 mmHg 96%
    05:00 +4°C° 0 mm 3 m/S 747 mmHg 97%
    06:00 +5°C° 0 mm 3 m/S 747 mmHg 94%
    07:00 +5°C° 0 mm 3 m/S 747 mmHg 92%
    08:00 +6°C° 0 mm 4 m/S 747 mmHg 89%
    09:00 +8°C° 0.1 mm 4 m/S 748 mmHg 81%
    10:00 +9°C° 0.1 mm 5 m/S 748 mmHg 73%
    11:00 +12°C° 0.1 mm 5 m/S 748 mmHg 65%
    12:00 +12°C° 0.5 mm 5 m/S 748 mmHg 63%
    13:00 +13°C° 0.5 mm 5 m/S 748 mmHg 61%
    14:00 +13°C° 0.5 mm 5 m/S 748 mmHg 59%
    15:00 +13°C° 0.3 mm 5 m/S 748 mmHg 64%
    16:00 +12°C° 0.3 mm 4 m/S 748 mmHg 68%
    17:00 +11°C° 0.3 mm 4 m/S 748 mmHg 73%
    18:00 +10°C° 0 mm 4 m/S 748 mmHg 76%
    19:00 +7°C° 0 mm 4 m/S 748 mmHg 79%
    20:00 +6°C° 0 mm 4 m/S 749 mmHg 81%
    21:00 +5°C° 0 mm 3 m/S 749 mmHg 82%
    22:00 +5°C° 0 mm 3 m/S 749 mmHg 83%
    23:00 +4°C° 0 mm 3 m/S 749 mmHg 84%

    20 September, Freitag

    Zeit Temperatur Niederschläge Wind Luftdruck Luftfeuchtigkeit
    00:00 +3°C° 0 mm 3 m/S 749 mmHg 87%
    01:00 +4°C° 0 mm 2 m/S 749 mmHg 90%
    02:00 +3°C° 0 mm 2 m/S 750 mmHg 93%
    03:00 +3°C° 0 mm 2 m/S 750 mmHg 93%
    04:00 +3°C° 0 mm 2 m/S 750 mmHg 93%
    05:00 +3°C° 0 mm 2 m/S 750 mmHg 94%
    06:00 +4°C° 0 mm 2 m/S 751 mmHg 92%
    07:00 +4°C° 0 mm 3 m/S 751 mmHg 91%
    08:00 +5°C° 0 mm 4 m/S 751 mmHg 89%
    09:00 +6°C° 0.1 mm 4 m/S 752 mmHg 82%
    10:00 +7°C° 0.1 mm 5 m/S 753 mmHg 75%
    11:00 +8°C° 0.1 mm 5 m/S 753 mmHg 68%
    12:00 +9°C° 0 mm 5 m/S 753 mmHg 61%
    13:00 +10°C° 0 mm 5 m/S 753 mmHg 55%
    14:00 +10°C° 0 mm 5 m/S 753 mmHg 48%
    15:00 +11°C° 0 mm 4 m/S 753 mmHg 51%
    16:00 +11°C° 0 mm 4 m/S 753 mmHg 53%
    17:00 +11°C° 0 mm 3 m/S 753 mmHg 56%
    18:00 +9°C° 0 mm 3 m/S 753 mmHg 63%
    19:00 +7°C° 0 mm 3 m/S 753 mmHg 69%
    20:00 +5°C° 0 mm 3 m/S 753 mmHg 76%
    21:00 +4°C° 0 mm 3 m/S 753 mmHg 79%
    22:00 +4°C° 0 mm 3 m/S 753 mmHg 82%
    23:00 +4°C° 0 mm 3 m/S 753 mmHg 86%
    Mehr zeigen